Regional Weather Roundup
Issued by NWS Pendleton, OR

Home | Current Version | Previous Version | Text Only | Print | Product List | Glossary On
Versions: 1 2 3 4 5 6 7 8 9 10 11 12 13 14 15 16 17 18 19 20 21 22 23 24 25 26 27 28 29 30 31 32 33 34 35 36 37 38 39 40 41 42 43 44 45 46 47 48 49 50
000
ASUS46 KPDT 280725
RWRPDT
PENDLETON REGIONAL WEATHER ROUNDUP
NATIONAL WEATHER SERVICE PENDLETON OREGON
1200 AM PDT WED JUN 28 2017

NOTE: FAIR INDICATES FEW OR NO CLOUDS BELOW 12,000 FEET WITH NO
SIGNIFICANT WEATHER AND/OR OBSTRUCTIONS TO VISIBILITY.

# INDICATES UNOFFICIAL STATION AND DATA

WAZ520-280810-
EAST SLOPES OF WASHINGTON CASCADES

CITY            SKY/WX      TMP DP  RH  WIND    PRES   REMARKS
#BULLFROG       N/A         59  46  62  W9      N/A
#CLE ELUM HS    N/A         58  46  64  W7      29.87F
#CLE ELUM LAKE  N/A         54  46  74  N1      29.99F
#ELK HTS DOT    N/A         59  59  100 W6      N/A
#GLENWOOD       N/A         50  46  86  CALM    29.83R
#NELSON 3SW     N/A         57  41  55  CALM    30.02F
#NILE           N/A         59  44  57  E1      29.12F
#TEANAWAY 4NE   N/A         56  47  72  CALM    N/A
#TROUT LAKE 1NE N/A         59  46  62  W9      29.84R
#TROUT LAKE 1E  N/A         60  46  60  SW2     29.94R
$$

WAZ521-280810-
SIMCOE HIGHLANDS

CITY            SKY/WX      TMP DP  RH  WIND    PRES   REMARKS
#BICKLETON HS   N/A         61  47  60  NE7     29.82F
#CENTERVILLE 1SWN/A         60  46  60  W15     29.78F
#GOLDENDALE 1NE N/A         60  33  36  SW3     N/A
#GOLDENDALE 4W  N/A         61  17  18  W13     29.92R
#GOODNOE HILLS  N/A         64  47  54  W15     N/A
#LYLE 6NE       N/A         62  50  65  S6      29.82F
#PITT 4SE       N/A         57  46  67  W9      29.88R
$$

WAZ026-280810-
KITTITAS VALLEY

CITY            SKY/WX      TMP DP  RH  WIND    PRES   REMARKS
ELLENSBURG AP   PTCLDY      63  44  50  NW22G29 29.86F
#ELLENSBURG CWU N/A         61  45  56  W8      29.72F
#ELLENSBURG 3NE N/A         59  46  62  N10     27.94F
#KITTITAS 3S    N/A         61  45  56  NW7     29.76F
#MANASTASH RDG  N/A         58  57  96  N12     N/A
#ROCKY CYN DOT  N/A         63  43  48  W21     N/A
#RYEGRASS DOT   N/A         58  44  60  W21     N/A
$$

WAZ027-280810-
YAKIMA VALLEY

CITY            SKY/WX      TMP DP  RH  WIND    PRES   REMARKS
SUNNYSIDE AP    PTCLDY      67  35  30  W14     29.80R
YAKIMA AIRPORT  PTCLDY      71  41  34  N16     29.84S
YAKIMA-VAGABOND CLEAR       67  34  29  N14     29.84S
#GRANDVIEW      N/A         67  37  33  W2      29.78R
#MABTON         N/A         68  41  37  SW5     29.80R
#MOXEE 2E       N/A         67  N/A N/A N10     29.85S
#NACHES 2SW     N/A         63  45  52  W8      29.86S
#OUTLOOK DOT    N/A         70  32  24  W5      29.76S
#PARKER DOT     N/A         69  38  32  S21G28  29.80F
#TERRACE HTS    N/A         67  38  34  W7      29.74R
#TOPPENISH      N/A         70  42  36  NW8     29.70R
#I82 S UMTANUM RN/A         65  35  33  W14     N/A
#UNION GAP DOT  N/A         68  38  33  N10     29.86R
#W YAKIMA       N/A         66  42  42  NW3     29.78R
#WHITE SWAN 5E  N/A         61  45  56  CALM    29.77R
#ZILLAH DOT     N/A         71  30  22  NW17    N/A
$$

WAZ028-280810-
LOWER COLUMBIA BASIN...WASHINGTON

CITY            SKY/WX      TMP DP  RH  WIND    PRES   REMARKS
HANFORD         MOCLEAR     72  31  22  W21G33  29.78S
PASCO           CLEAR       69  52  55  S8      29.79R
PROSSER AWOS    N/A         70  37  30  W12     29.83R
RICHLAND AWOS   PTCLDY      68  53  59  SE3     29.79R
#BENTON CITY    N/A         62  50  65  CALM    29.66R
#CONNELL 5N     N/A         61  46  58  SW2     29.73F
#CONNELL 5NW    N/A         59  48  67  CALM    29.69R
#ELTOPIA 6NW    N/A         66  41  40  W2      28.77R
#KAHLOTUS       N/A         67  46  47  N9      29.73R
#KENNEWICK 3S   N/A         65  51  60  S3      29.77S
#PATERSON       N/A         66  51  58  NW9     29.76R
#PROSSER DOT    N/A         66  37  34  W2      29.80R
#SAGEMOOR 2W    N/A         70  37  30  W12     29.61R
#TOUCHET 2S     N/A         67  51  56  SW7     29.75R
#WEST PASCO     N/A         69  51  53  S1      29.74R
$$

WAZ029-280810-
FOOTHILLS OF THE BLUES...WASHINGTON

CITY            SKY/WX      TMP DP  RH  WIND    PRES   REMARKS
WALLA WALLA AP  CLEAR       67  49  52  S9      29.84R
#CLYDE 6NW      N/A         65  50  58  SW8     29.74R
#DAYTON SCHOOL  N/A         59  44  57  CALM    29.85R
#DELANEY DOT    N/A         59  46  62  CALM    29.80S
#LOWDEN 2SE     N/A         66  52  61  W2      29.78R
#PLEASANT VIEW 1N/A         60  46  60  SW8     29.77S
#PRESCOTT       N/A         51  48  89  CALM    29.76R
#WHITMAN COLLEGEN/A         66  50  56  S5      29.83R
#WAITSBURG 5S   N/A         59  48  67  S3      29.87R
#WAITSBURG 6SSE N/A         60  46  60  SE3     29.81R
#WAITSBURG 8N   N/A         54  N/A N/A S5      29.78S
#WALLA WALLA 5E N/A         65  50  58  S13     N/A
#WALLA WALLA U  N/A         66  51  58  CALM    29.78R
#WHITMAN MISSIONN/A         66  53  63  W2      29.80R
$$

WAZ030-280810-
BLUE MOUNTAINS...WASHINGTON

CITY            SKY/WX      TMP DP  RH  WIND    PRES   REMARKS
#DIXIE 5SE      N/A         62  44  52  SW7     29.82R
$$

ORZ009-041-WAZ024-280810-
COLUMBIA RIVER GORGE

CITY            SKY/WX      TMP DP  RH  WIND    PRES   REMARKS
HOOD RIVER AP   CLEAR       63  48  58  W3      29.92S
THE DALLES AP   CLEAR       70  47  44  W16     29.85S
#ARLINGTON AIRPON/A         65  47  52  W10     29.82R
#CELILO DOT     N/A         70  46  42  SW8     N/A
#LYLE           N/A         68  53  59  NW16G40 29.87S
#MARYHILL       N/A         65  45  48  N13     29.72R
#RUFUS DOT      N/A         70  N/A N/A W22     N/A
#SMITHVILLE     N/A         68  50  53  SW15G28 29.84F

$$

ORZ510-280810-
NORTH CENTRAL OREGON

CITY            SKY/WX      TMP DP  RH  WIND    PRES   REMARKS
#ANTELOPE       N/A         50  27  41  CALM    29.71R
#CHENOWITH 1W   N/A         51  35  54  NW14    N/A
#COW CYN RST AREN/A         55  30  38  SE3     N/A
#DUFUR          N/A         54  41  61  CALM    29.82S
#DUFUR 9E       N/A         59  42  53  W9      29.90S
#GRASS VALLEY 1SN/A         60  38  44  W10     29.94R
#KENT DOT       N/A         53  28  38  SW13    N/A
#MAUPIN SCHOOL  N/A         63  48  58  CALM    29.93S
#MORO SCHOOL    N/A         62  47  58  W14     29.97F
#SHANIKO 5WSW   N/A         55  22  27  N7      N/A
#SHANIKO 4NW    N/A         54  29  38  SW3     29.97R
#TYGH VALLEY 2NEN/A         57  35  43  N1      29.84R
#WAPANITIA AIRPON/A         58  45  62  W7      29.85S
#WASCO DOT      N/A         63  45  52  W8      N/A
#WASCO 5NE      N/A         61  46  58  W8      29.80R
$$

ORZ511-280810-
CENTRAL OREGON

CITY            SKY/WX      TMP DP  RH  WIND    PRES   REMARKS
BEND AIRPORT    CLEAR       55  43  64  N5      30.00R
MADRAS AIRPORT  CLEAR       54  36  50  CALM    29.97S
PRINEVILLE AP   CLEAR       52  34  50  CALM    29.99R
REDMOND AIRPORT CLEAR       60  40  47  NW12    29.98R
#ASHWOOD SCHOOL N/A         58  32  37  SE1     29.93S
#BEND 1SW       N/A         53  42  66  CALM    N/A
#BEND-AWBREY    N/A         57  41  55  S1      29.82S
#BEND-KIM LN    N/A         57  41  55  N3      29.78S
#CULVER         N/A         57  39  51  E1      29.78R
#CULVER 8W      N/A         57  40  53  CALM    29.96F
#LAKE BILLY CHINN/A         59  N/A N/A SE5     29.94R
#MADRAS 4S      N/A         54  13  19  S5      N/A
#POWELL BUTTE   N/A         58  37  45  CALM    29.96R
#PRINEVILLE     N/A         57  35  43  CALM    29.92R
#PRINEVILLE 3N  N/A         57  36  45  CALM    29.92R
#WARM SPRINGS   N/A         62  39  43  CALM    29.75R

$$


ORZ509-280810-
EAST SLOPES OF OREGON CASCADES

CITY            SKY/WX      TMP DP  RH  WIND    PRES   REMARKS
SISTERS AWOS    N/A         59  45  60  NW3     29.96S
#BLUE BOX PASS  N/A         49  N/A N/A NW6     N/A
#CAMP SHERMAN   N/A         55  44  66  CALM    29.91S
#LA PINE 4NW    N/A         49  40  71  CALM    29.88R
#LAVA BUTTE DOT N/A         54  38  55  SE1     N/A
#SISTERS ODOT   N/A         35  20  54  SW8     N/A
#SISTERS 3N     N/A         55  40  57  W3      30.00S
#SUNRIVER       N/A         54  39  57  CALM    29.98R
#TUMALO 3W      N/A         59  29  32  W3      29.71R
#WANOGA BUTTE D N/A         55  -24  3  NW8     N/A

$$

ORZ044-280810-
LOWER COLUMBIA BASIN...OREGON

CITY            SKY/WX      TMP DP  RH  WIND    PRES   REMARKS
HERMISTON       CLEAR       67  46  47  SW12    29.81R
#BOARDMAN SCHOOLN/A         67  48  50  SW9     29.79R
#BOARDMAN 8SW   N/A         65  48  54  SW12    29.80R
#ECHO 8SW       N/A         67  42  40  SW9     29.83R
#I-84 EX 198 DOTN/A         67  47  49  E16     N/A
#IONE SCHOOL    N/A         65  41  41  SW2     29.83R
#UMATILLA       N/A         67  46  47  CALM    29.71R
$$

ORZ507-280810-
NORTHERN FOOTHILLS OF THE BLUES

CITY            SKY/WX      TMP DP  RH  WIND    PRES   REMARKS
PENDLETON AIRPT CLEAR       60  48  64  W12     29.85R
#ADAMS 3WNW     N/A         58  49  72  W3      29.79R
#ATHENA         N/A         61  49  65  W3      29.81R
#CAYUSE         N/A         61  47  60  E5      29.78R
#HELIX SCHOOL   N/A         60  48  64  W1      29.78R
#HELIX 3N       N/A         59  47  64  SW1     29.84R
#HOLDMAN 5SE    N/A         61  47  60  W1      29.85R
#HOLDMAN 6E     N/A         61  48  62  S6      29.60R
#M-F GROVE ELEM N/A          0  -78  1  CALM    29.81R
#M-FREEWATER 5SEN/A         67  49  52  S1      29.84R
#PENDLETON DNTN N/A         65  44  46  CALM    29.83S
#PDT AQUATIC CTRN/A         65  43  45  CALM    29.84S
#PDT SUNRIDGE   N/A         60  48  64  CALM    29.85S
#PILOT ROCK 1S  N/A         57  37  47  CALM    29.88R
#PILOT ROCK     N/A         58  39  49  CALM    29.89R
#TUTUILLA       N/A         55  46  72  CALM    29.88S
#UMAPINE 2E     N/A         69  51  53  W3      29.79R
#WESTON SCHOOL  N/A         62  45  54  W7      29.79R

$$

ORZ508-280810-
SOUTHERN FOOTHILLS OF THE BLUES

CITY            SKY/WX      TMP DP  RH  WIND    PRES   REMARKS
LEXINGTON       CLEAR       63  39  41  S7      29.92R
#AJAX           N/A         61  32  33  S12     30.06S
#CONDON 5W      N/A         56  29  35  W1      29.92R
#HEPPNER EOC    N/A         62  40  44  SW5     29.76R
#HEPPNER 4NE    N/A         59  41  51  W9      29.80R
#LEXINGTON 2SE  N/A         61  42  50  CALM    29.84R
#MIKKALO        N/A         63  38  39  W7      30.01R
#OLEX 4N        N/A         64  43  46  SW17    29.84R
#RUGGS 5NE      N/A         58  36  44  W6      30.11R
#RUGGS 2SW      N/A         55  34  45  CALM    29.83R

$$

ORZ502-503-280810-
BLUE MOUNTAINS

CITY            SKY/WX      TMP DP  RH  WIND    PRES   REMARKS
MEACHAM         PTCLDY      48  41  77  CALM    29.94S
#BATTLE MTN DOT N/A         58  24  27  S1      N/A
#CUTSFORTH PARK N/A          0  -78  1  CALM    29.73S
#GRANITE        N/A         47  34  60  CALM    29.62S
#GREENHORN 9SW  N/A         48  42  80  CALM    29.96R
#HARDMAN 10S    N/A         54  22  28  CALM    29.90F
#HEPPNER 15SE   N/A         55  30  38  S2      29.83R
#LADD CYN SMT   N/A         64  35  34  NW6     N/A
#LADD CREEK ODOTN/A         57  43  59  SW1     N/A
#LONG CREEK HS  N/A         52  37  56  CALM    N/A
#N POWDER DOT   N/A         56  43  62  CALM    N/A
#PIKES PEAK     N/A         60  45  58  N23     27.99S
#SUMMERVILLE 5NWN/A         61  40  46  NW2     29.91S
#TOLLGATE       N/A         51  40  66  SW1     29.84S
#TROY SCHOOL    N/A         60  48  64  CALM    29.60R
#WESTON 4E      N/A         57  45  64  S3      29.75S
$$

ORZ505-280810-
JOHN DAY BASIN

CITY            SKY/WX      TMP DP  RH  WIND    PRES   REMARKS
JOHN DAY        PTCLDY      60  33  36  CALM    29.95R
#JOHN DAY KJDY  N/A         63  N/A N/A CALM    30.14R
#ANTELOPE 9ESE  N/A         64  29  27  SW6     N/A
#DAYVILLE SCHOOLN/A         64  31  29  CALM    29.89R
#MITCHELL       N/A         54  39  57  CALM    30.12R
#MITCHELL 8NW   N/A         60  23  24  SW2     29.83R
#MONUMENT HS    N/A         60  40  47  CALM    29.86R
#MT. VERNON 5SE N/A         60  34  37  CALM    29.90S
#SPRAY SCHOOL   N/A         58  N/A N/A CALM    N/A
$$

ORZ506-280810-
OCHOCO AND JOHN DAY HIGHLANDS

CITY            SKY/WX      TMP DP  RH  WIND    PRES   REMARKS
#HORSE RIDGE DO N/A         58  32  37  NW15    N/A
#PAULINA ODOT   N/A         63  27  25  NW6     N/A
#PINE MTN OBS   N/A         49  33  54  NW12    N/A    WCI 44
#PRAIRIE CITY   N/A         54  37  52  CALM    30.07S
#SENECA         N/A         57  N/A N/A CALM    N/A
#SENECA 9NW     N/A         51  34  52  CALM    29.76R
$$

ORZ049-280810-
GRANDE RONDE VALLEY

CITY            SKY/WX      TMP DP  RH  WIND    PRES   REMARKS
LA GRANDE       MOCLDY      64  39  40  NW8     29.88S
#COVE           N/A         59  46  62  N2      29.92F
#COVE SCHOOL    N/A         59  44  57  CALM    29.91F
#COVE 6NW       N/A         59  45  60  CALM    29.78S
#ELGIN 3N       N/A         56  42  59  CALM    29.87S
#ELGIN 1E       N/A         59  43  55  CALM    N/A
#IMBLER SCHOOL  N/A         59  44  57  CALM    29.85S
#ISLAND CITY 4N N/A         54  50  86  CALM    30.00R
#LA GRANDE-LEFFEN/A         61  41  48  CALM    29.90S
$$

ORZ050-280810-
WALLOWA COUNTY

CITY            SKY/WX      TMP DP  RH  WIND    PRES   REMARKS
JOSEPH AIRPORT  MOCLDY      50  39  66  S5      29.94S
#ENTERPRISE HS  N/A         51  40  66  CALM    29.65S
#IMNAHA SCHOOL  N/A         65  43  45  S2      29.84R
#IMNAHA 10S     N/A         60  39  46  SW3     29.88R
#JOSEPH         N/A         53  43  69  CALM    29.90F
#JOSEPH 3N      N/A         46  37  71  CALM    29.96S
#JOSEPH 3W      N/A         51  43  74  SW3     29.80F
#LOSTINE        N/A         50  43  77  CALM    29.58S
#LOSTINE 3SE    N/A         49  42  77  CALM    29.95S
#MT HOWARD 8000 N/A         48  28  46  W3      30.12S
#PROMISE 1S     N/A         63  41  44  SW5     29.83F
#WALLOWA LAKE   N/A         52  43  71  CALM    29.96S
#WALLOWA SCHOOL N/A         53  43  69  CALM    29.86F



$$



USA.gov is the U.S. government's official web portal to all federal, state and local government web resources and services.